Weather in Borodino

Ukraine / Odesa District     46°18′01″N   29°14′35″E
temp.,
°C
wind,
m/s
gust,
m/s
humid.,
%
clouds,
%
prec.,
mm/h
press.,
hPa
HPBL,
m
4 march, thu
thu423:00+4s23620 0.0 102725
02:00+3s34690 0.0 102663
05:00+3ssw49810 0.0 1023188
08:00+4ssw611804 0.0 1021367
11:00+10ssw711600 0.0 1019603
14:00+14sw79490 0.0 1016850
17:00+14wsw34460 0.0 1014102
20:00+9sw35650 0.0 101475
5 march, fri
fri523:00+8sw477097 0.0 1013131
02:00+7sw337457 0.0 101240
05:00+6w226110 0.0 101123
08:00+7nw34615 0.0 1011114
11:00+12nw344660 0.0 1011452
14:00+15wnw563771 0.0 10101320
17:00+14nw364451 0.0 1011301
20:00+7n7128061 0.0 1015441
6 march, sat
sat623:00+4n8118798 0.0 1017666
02:00+4n7106999 0.0 1020863
05:00+2n61067100 0.0 1021801
08:00+2n71064100 0.0 1024757
11:00+3n794499 0.0 10251291
14:00+4n783799 0.0 10261709
17:00+3n683015 0.0 10271991
20:00+1nnw36437 0.0 1029167
7 march, sun
sun723:000nw23460 0.0 103138
02:00−1wnw23460 0.0 103065
05:00−1w34500 0.0 102985
08:00+1wsw47410 0.0 1029382
11:00+4sw79330 0.0 10271329
14:00+6wsw79330 0.0 10231474
17:00+6wsw58380 0.0 10201295
20:00+3sw511540 0.0 1020307
8 march, mon
mon823:00+1sw48610 0.0 1019180
02:000wsw34660 0.0 101869
05:000wnw226014 0.0 101722
08:00+2nw225342 0.0 101885
11:00+7n12352 0.0 10181018
14:00+8w33301 0.0 10171963
17:00+8wnw233128 0.0 10162165
20:00+5nne365040 0.0 1018164